Morrisville, VT

6:40 PM EDT on August 27, 2016 (GMT -0400)
Morrisville Stowe State

Weather History for KMVL - January, 2014

Change the Weather History Date:

Wednesday, January 8, 2014

  Actual Average Record
Temperature  
Mean Temperature 11 °F 16 °F  
Max Temperature 16 °F 27 °F 60 °F (2008)
Min Temperature 6 °F 6 °F -21 °F (2015)
Degree Days  
Heating Degree Days 54 49  
Month to date heating degree days 453 384  
Since 1 July heating degree days 3597 3522  
Cooling Degree Days 0 0  
Month to date cooling degree days 0 0  
Year to date cooling degree days 0 0  
Moisture  
Dew Point -1 °F    
Average Humidity 64    
Maximum Humidity 76    
Minimum Humidity 51    
Precipitation  
Precipitation T in 0.08 in 1.86 in (1998)
Month to date precipitation 0.70 0.79  
Year to date precipitation 0.70 0.79  
Sea Level Pressure  
Sea Level Pressure 30.29 in    
Wind  
Wind Speed 6 mph (SW)    
Max Wind Speed 16 mph    
Max Gust Speed 21 mph    
Visibility 9 miles    
Events Snow    
T = Trace of Precipitation, MM = Missing Value Source: NWS Daily Summary

Daily Weather History Graph

Daily Weather History Graph

Search for Another Location

Airport or City:

Trip Planner

Search our weather history database for the weather conditions in past years. The results will help you decide how hot, cold, wet, or windy it might be!

Date:

Astronomy

Jan. 08, 2014 Rise Set
Actual Time 7:26 AM EST 4:28 PM EST
Civil Twilight 6:53 AM EST 5:01 PM EST
Nautical Twilight 6:17 AM EST 5:37 PM EST
Astronomical Twilight 5:41 AM EST 6:12 PM EST
Moon 11:27 AM EST (1/8) 12:20 AM EST (1/8)
Length of Visible Light 10h 07m
Length of Day
9h 01m
First Quarter, 56% of the Moon is Illuminated
Jan 8
First Quarter
Jan 15
Full
Jan 24
Last Quarter
Jan 30
New
Feb 6
First Quarter

Hourly Weather History & Observations

Time (EST) Temp. Windchill Dew Point Humidity Pressure Visibility Wind Dir Wind Speed Gust Speed Precip Events Conditions
12:54 AM 7.0 °F -7.5 °F -0.9 °F 70% 30.10 in 1.8 mi South 10.4 mph 16.1 mph 0.00 in Snow Light Snow
1:35 AM 6.8 °F -4.8 °F -0.4 °F 72% 30.07 in 2.0 mi Variable 6.9 mph - 0.00 in Snow Light Snow
1:54 AM 7.0 °F -5.7 °F -0.9 °F 70% 30.14 in 3.0 mi South 8.1 mph - 0.00 in Snow Light Snow
2:18 AM 8.6 °F -2.6 °F -2.2 °F 62% 30.10 in 6.0 mi SW 6.9 mph - 0.00 in   Haze
2:54 AM 8.1 °F -2.0 °F -2.9 °F 61% 30.17 in 10.0 mi South 5.8 mph - 0.00 in   Overcast
3:54 AM 9.0 °F -2.2 °F -2.9 °F 59% 30.18 in 10.0 mi SSW 6.9 mph - N/A   Overcast
4:54 AM 9.0 °F -2.2 °F -2.9 °F 59% 30.21 in 10.0 mi SSW 6.9 mph - N/A   Overcast
5:54 AM 10.0 °F -2.9 °F -2.0 °F 58% 30.23 in 10.0 mi SSW 9.2 mph - N/A   Overcast
6:54 AM 9.0 °F -0.9 °F -2.0 °F 61% 30.26 in 10.0 mi Variable 5.8 mph - N/A   Overcast
7:54 AM 10.0 °F -2.9 °F -2.0 °F 58% 30.29 in 10.0 mi WSW 9.2 mph - N/A   Overcast
8:54 AM 10.9 °F -1.8 °F -0.0 °F 61% 30.32 in 10.0 mi SW 9.2 mph - N/A   Overcast
9:54 AM 12.0 °F -2.0 °F 1.0 °F 61% 30.35 in 10.0 mi SSW 11.5 mph - N/A   Overcast
10:54 AM 12.9 °F -0.9 °F 1.9 °F 62% 30.35 in 8.0 mi SW 11.5 mph 20.7 mph N/A   Overcast
11:54 AM 15.1 °F 0.5 °F 1.0 °F 54% 30.32 in 10.0 mi SSW 13.8 mph 17.3 mph N/A   Mostly Cloudy
12:54 PM 15.1 °F 2.5 °F -0.9 °F 49% 30.32 in 10.0 mi SSW 10.4 mph - N/A   Overcast
1:54 PM 16.0 °F 6.3 °F -0.9 °F 47% 30.33 in 10.0 mi West 6.9 mph - N/A   Scattered Clouds
2:54 PM 16.0 °F 7.4 °F -0.9 °F 47% 30.34 in 10.0 mi West 5.8 mph - N/A   Clear
3:54 PM 16.0 °F 8.8 °F -0.9 °F 47% 30.35 in 10.0 mi Variable 4.6 mph - N/A   Clear
4:54 PM 15.1 °F 7.7 °F -0.9 °F 49% 30.37 in 10.0 mi WSW 4.6 mph - N/A   Clear
5:54 PM 14.0 °F 8.2 °F -0.0 °F 54% 30.39 in 10.0 mi SW 3.5 mph - N/A   Scattered Clouds
6:54 PM 12.9 °F 5.2 °F -0.0 °F 56% 30.39 in 10.0 mi South 4.6 mph - N/A   Overcast
7:54 PM 14.0 °F - -0.0 °F 54% 30.39 in 10.0 mi Calm Calm - N/A   Overcast
8:54 PM 15.1 °F 7.7 °F 1.0 °F 54% 30.40 in 10.0 mi South 4.6 mph - N/A   Overcast
9:54 PM 14.0 °F - 1.0 °F 56% 30.40 in 10.0 mi Calm Calm - N/A   Overcast
10:54 PM 14.0 °F - 1.0 °F 56% 30.40 in 10.0 mi Calm Calm - N/A   Overcast
11:54 PM 14.0 °F - 3.0 °F 62% 30.38 in 10.0 mi Calm Calm - N/A   Overcast